sat.trackr.live / text

‹ back to catalog

STARLINK-1434

NORAD 45712 · 2020-035BH

PAYLOAD ACTIVE UNKNOWN

§ Identity

Operator
Country
US
Launch date
2020-06-04
Launch site
AFETR
Launch vehicle
Mass (kg)
RCS (m²)

Purposes: comms

External: N2YO · Heavens-Above · Gunter

§ Orbital elements

Epoch: 2026-09-20T01:23:29.713056Z

Period
93.33 min
Inclination
53.0461°
Eccentricity
0.0004411
Mean motion
15.42856415 rev/d
Perigee alt
434.7 km
Apogee alt
440.7 km
Semi-major
6,815.8 km
B*
8.8039e-4
RAAN
188.3197°
Arg perigee
70.1243°
Mean anomaly
290.0237°
Rev number
34,924

§ Raw data

STARLINK-14341 45712U 20035BH  26263.05798279  .00039013  00000+0  88039-3 0  99912 45712  53.0461 188.3197 0004411  70.1243 290.0237 15.42856415349240

JSON: /api/v1/satellites/45712 · /tle

For live sub-satellite position, see the globe view (requires WebGL).

§ Visibility from observer

Set your observer location to see the next 7 days of passes ≥ 10°. The values pass through the URL so the page stays shareable.

No JS? Fill the form by hand. The geolocation button needs JavaScript.